Hourly Data Report for October 13, 2002

SHERBROOKE A
QUEBEC

45°26'00.000" N
71°41'00.000" W
241.40 m
7028124
71610
YSC

Download Data

Hourly Data (October 2002)
Hourly Data Report for October 13, 2002
TIME
LST
Temp Definition
°C
Dew Point Definition
°C
Rel Hum Definition
%
Precip. Amount Definition
mm

Wind Dir Definition
10's deg

Wind Spd Definition
km/h
Visibility Definition
km
Stn Press Definition
kPa
Hmdx Definition


Wind Chill Definition


Weather Definition


00:00 6.5 3.8 83   14 7 15.0 99.51      
01:00 6.9 4.3 83   15 7 15.0 99.46      
02:00 4.1 2.9 92     0 15.0 99.42      
03:00 2.7 1.6 92   14 6 15.0 99.37      
04:00 4.2 3.4 95   8 4 12.9 99.29      
05:00 4.3 3.3 93   10 6 11.3 99.25      
06:00 3.4 2.4 93     0 12.9 99.24      
07:00 7.1 6.7 97     0 24.1 99.21     Mostly Cloudy
08:00 10.5 7.9 84     0 24.1 99.17     Mostly Cloudy
09:00 12.6 7.9 73   15 7 24.1 99.12     Cloudy
10:00 13.5 8.7 73   15 13 24.1 99.06     Rain Showers
11:00 14.3 9.6 73   13 17 24.1 98.94     Rain Showers
12:00 17.9 9.0 56   15 20 24.1 98.79     Mostly Cloudy
13:00 17.1 9.4 60   17 20 24.1 98.72     Mostly Cloudy
14:00 17.7 10.3 62   16 19 24.1 98.64     Mostly Cloudy
15:00 16.5 10.3 67   16 15 24.1 98.62     Mostly Cloudy
16:00 15.1 10.1 72   16 15 24.1 98.61     Cloudy
17:00 12.2 11.5 95   16 17 2.4 98.64     Rain
18:00 12.0 11.6 97   14 7 4.8 98.65     Rain
19:00 12.2 11.8 97   24 17 2.6 98.72     Rain
20:00 8.2 7.2 93   23 13 15.0 98.87     Rain
21:00 7.5 6.4 93   24 11 12.9 98.91     Rain
22:00 7.6 7.0 96   23 6 15.0 98.92     Rain
23:00 7.5 7.0 97   22 7 15.0 98.95      

Notes on Data Quality.

Legend

  • E = Estimated
  • M = Missing
  • NA = Not Available*
  • [empty] = Indicates an unobserved value
Date modified: